DateTimeUTC,F1_A11,F1_S11,BsB_S11,BsG_S11,BsR_S11,BbsB_S11,BbsG_S11,BbsR_S11,BaB_A11,BaG_A11,BaR_A11,Tu_S11,T_S11,Uu_S11,U_S11,P_S11,T1_A11
2021-08-02T05:00:00Z,00000200,20000000,,,,,,,0000.60,0000.31,0000.63,18.2,25.2,02.6,01.7,0672.0,31.0
2021-08-02T05:01:00Z,00000200,20000000,,,,,,,0000.40,0000.13,0000.13,18.1,25.2,02.6,01.7,0672.0,31.0
2021-08-02T05:02:00Z,00000200,20000000,,,,,,,0000.19,0000.46,0000.26,18.1,25.2,02.6,01.7,0672.0,31.0
2021-08-02T05:03:00Z,00000200,60000000,,,,,,,0000.92,0000.86,0000.93,18.1,25.2,02.6,01.7,0672.0,31.0
2021-08-02T05:04:00Z,00000200,40000000,0005.28,0003.80,0002.15,0000.20,0000.71,0000.16,0001.07,0000.79,0000.60,18.4,25.1,03.1,02.1,0672.8,31.0
2021-08-02T05:05:00Z,00000200,00000000,0004.64,0003.88,0002.23,0000.38,0000.28,0000.42,0001.36,0001.48,0000.94,18.6,25.1,03.2,02.2,0672.9,31.0
2021-08-02T05:06:00Z,00000200,00000000,0005.16,0003.13,0001.72,0000.80,0000.35,-000.17,0000.95,0000.93,0000.53,18.6,25.1,03.4,02.3,0672.9,31.0
2021-08-02T05:07:00Z,00000200,00000000,-000.20,0000.39,0000.25,0000.28,-000.01,-000.22,-000.03,-000.28,0000.05,18.6,25.1,03.4,02.3,0672.9,31.0
2021-08-02T05:08:00Z,00000200,00000000,-000.13,0000.14,-000.16,0000.07,-000.08,-000.24,-000.43,0000.00,-000.39,18.6,25.1,03.2,02.1,0672.9,31.0
2021-08-02T05:09:00Z,00000200,00000000,-000.08,0000.05,0000.03,0000.18,0000.10,-000.03,0001.59,0001.53,0001.83,18.5,25.0,03.0,02.0,0672.9,31.0
2021-08-02T05:10:00Z,00000200,00000000,0002.30,0001.49,0000.75,0000.57,-000.10,0000.19,-000.28,-000.58,-000.72,18.5,25.0,03.6,02.4,0672.9,31.0
2021-08-02T05:11:00Z,00000200,00000000,0005.68,0003.74,0002.12,0000.62,-000.03,0000.29,0001.07,0000.67,0000.58,18.4,25.0,03.3,02.2,0672.9,31.0
2021-08-02T05:12:00Z,00000200,00000000,0004.14,0003.11,0001.86,0000.43,0000.57,0000.23,0000.73,0000.93,0000.47,18.4,25.0,03.3,02.2,0672.9,31.0
2021-08-02T05:13:00Z,00000200,00000000,0001.72,0001.52,0000.59,0000.01,-000.09,-000.18,0000.16,0000.02,-000.06,18.4,25.0,03.1,02.1,0672.8,31.0
2021-08-02T05:14:00Z,00000200,00000000,0000.11,0000.08,0000.08,-000.20,0000.06,-000.33,-000.17,-000.35,-000.35,18.3,24.9,02.9,02.0,0672.8,31.0
2021-08-02T05:15:00Z,00000200,00000000,-000.78,-000.16,0000.40,0000.21,-000.07,0000.06,-000.34,-000.25,-000.17,18.3,24.9,02.9,01.9,0672.8,31.0
2021-08-02T05:16:00Z,00000200,00000000,-000.04,-000.11,0000.35,-000.07,-000.11,0000.06,0000.01,0000.46,0000.33,18.3,24.9,02.8,01.9,0672.7,31.0
2021-08-02T05:17:00Z,00000200,00000000,-000.10,0000.32,0000.11,-000.11,-000.08,-000.03,0000.07,0000.14,0000.14,18.3,24.9,02.9,01.9,0672.7,31.0
2021-08-02T05:18:00Z,00000200,00000000,-000.30,0000.11,0000.16,0000.04,-000.25,0000.11,0000.19,-000.45,-000.23,18.4,25.0,02.8,01.9,0672.7,31.0
2021-08-02T05:19:00Z,00000200,00000000,0000.07,0000.10,0000.09,0000.07,0000.04,-000.27,-000.35,-000.14,-000.12,18.5,25.0,02.6,01.8,0672.7,31.0
2021-08-02T05:20:00Z,00000200,00000000,-000.09,-000.02,0000.30,-000.28,-000.08,-000.04,0000.14,-000.25,-000.19,18.6,25.0,02.5,01.7,0672.7,31.0
2021-08-02T05:21:00Z,00000200,00000000,-000.65,0000.14,-000.04,-000.12,-000.36,-000.22,-000.21,0000.04,-000.44,18.6,25.1,02.4,01.6,0672.7,31.0
2021-08-02T05:22:00Z,00000200,00000000,0000.34,-000.07,-000.03,0000.03,0000.08,-000.07,0000.80,0001.01,0000.48,18.6,25.1,02.5,01.7,0672.7,31.0
2021-08-02T05:23:00Z,00000200,00000000,-000.11,0000.22,0000.15,0000.63,-000.04,0000.12,0000.95,0000.95,0001.44,18.5,25.0,03.8,02.5,0672.8,31.0
2021-08-02T05:24:00Z,00000200,00000000,-000.56,-000.04,-000.05,-000.13,-000.02,-000.36,-000.78,-000.93,-000.87,18.5,25.0,02.6,01.7,0672.8,31.0
2021-08-02T05:25:00Z,00000200,00000000,0000.05,0000.03,0000.05,0000.33,-000.02,-000.40,-000.74,-000.58,-000.33,18.5,25.0,02.3,01.5,0672.8,31.0
2021-08-02T05:26:00Z,00000200,00000000,0000.25,0000.32,-000.11,0000.23,-000.31,-000.47,0000.22,-000.01,-000.07,18.4,25.0,02.2,01.5,0672.8,31.0
2021-08-02T05:27:00Z,00000200,00000000,-000.12,0000.37,0000.22,0000.10,-000.05,-000.15,-000.03,-000.01,0000.37,18.4,25.0,02.1,01.4,0672.8,31.0
2021-08-02T05:28:00Z,00000200,01000000,-000.39,-000.03,0000.11,-000.04,-000.20,-000.13,-000.29,-000.60,-000.64,18.4,25.0,01.9,01.3,0672.9,31.0
2021-08-02T05:29:00Z,00000200,01000000,-000.05,-000.01,-000.09,0000.21,-000.07,0000.01,0000.16,0000.14,-000.10,18.4,24.9,01.9,01.2,0672.9,31.0
2021-08-02T05:30:00Z,00000200,01000000,0000.55,0000.17,0000.17,0000.05,-000.00,-000.18,-000.27,-000.00,-000.16,18.3,24.9,01.8,01.2,0672.9,31.0
2021-08-02T05:31:00Z,00000200,01000000,-000.15,0000.02,0000.27,0000.07,0000.18,0000.22,0000.17,0000.51,-000.05,18.3,24.9,01.8,01.2,0673.0,30.9
2021-08-02T05:32:00Z,00000200,01000000,-000.33,0000.24,0000.30,0000.48,-000.11,0000.03,0000.20,-000.30,0000.46,18.3,24.9,01.7,01.2,0672.9,31.0
2021-08-02T05:33:00Z,00000200,01000000,0000.27,0000.30,0000.03,-000.01,-000.05,0000.04,0000.36,0000.41,0000.62,18.4,24.9,01.9,01.3,0672.9,31.0
2021-08-02T05:34:00Z,00000200,01000000,0000.21,0000.42,0000.01,-000.02,-000.30,-000.12,-000.31,-000.12,-000.53,18.5,25.0,02.0,01.3,0673.0,31.0
2021-08-02T05:35:00Z,00000200,01000000,-000.37,0000.19,-000.22,0000.05,-000.20,-000.17,0000.31,-000.04,0000.28,18.6,25.0,01.9,01.3,0673.0,31.0
2021-08-02T05:36:00Z,00000200,01000000,-000.45,0000.16,-000.02,-000.17,-000.10,-000.02,-000.09,-000.01,-000.34,18.6,25.1,01.8,01.2,0673.0,31.0
2021-08-02T05:37:00Z,00000200,01000000,-000.22,0000.46,0000.21,0000.00,-000.22,0000.01,0000.04,0000.24,0000.13,18.6,25.1,01.9,01.2,0673.0,31.0
2021-08-02T05:38:00Z,00000200,00000000,0000.38,0000.24,0000.32,0000.55,-000.27,-000.02,0000.21,0000.23,0000.17,18.6,25.0,01.9,01.3,0673.0,31.0
2021-08-02T05:39:00Z,00000200,01000000,-000.16,0000.12,0000.07,0000.38,-000.12,-000.31,-000.11,-000.39,-000.18,18.5,25.0,01.9,01.3,0673.0,31.0
2021-08-02T05:40:00Z,00000200,01000000,0000.24,0000.33,0000.21,-000.01,-000.13,-000.12,-000.03,0000.12,0000.12,18.5,25.0,01.9,01.3,0673.0,31.0
2021-08-02T05:41:00Z,00000200,01000000,0000.79,0000.71,0000.27,0000.47,0000.21,-000.27,-000.09,0000.06,-000.10,18.4,25.0,01.8,01.2,0673.0,31.0
2021-08-02T05:42:00Z,00000200,01000000,0000.62,0000.80,0000.21,-000.15,-000.17,-000.13,0000.23,0000.11,0000.14,18.4,25.0,01.7,01.2,0673.0,31.0
2021-08-02T05:43:00Z,00000200,01000000,0000.04,0000.47,0000.11,-000.26,0000.04,-000.16,-000.26,-000.35,-000.17,18.4,25.0,01.7,01.2,0672.9,31.0
2021-08-02T05:44:00Z,00000200,01000000,-000.04,0000.68,0000.03,0000.11,-000.01,-000.05,0000.10,0000.11,0000.34,18.4,24.9,01.7,01.2,0672.9,31.0
2021-08-02T05:45:00Z,00000200,01000000,0000.79,0000.32,0000.24,0000.03,-000.16,-000.39,0000.48,0000.48,-000.15,18.3,24.9,01.8,01.2,0672.9,31.0
2021-08-02T05:46:00Z,00000200,01000000,-000.17,0000.60,0000.24,-000.34,-000.15,0000.18,0000.36,-000.02,0000.36,18.3,24.9,01.8,01.2,0672.9,31.0
2021-08-02T05:47:00Z,00000200,01000000,-000.06,0000.50,0000.01,0000.23,0000.20,0000.02,0000.16,0000.33,0000.07,18.3,24.9,01.8,01.2,0672.9,31.0
2021-08-02T05:48:00Z,00000200,01000000,0000.98,0000.42,0000.21,-000.04,0000.04,-000.06,-000.10,0000.37,0000.18,18.4,24.9,01.9,01.3,0672.8,31.0
2021-08-02T05:49:00Z,00000200,01000000,0000.55,0000.14,0000.34,0000.14,-000.07,0000.14,0000.54,-000.00,0000.04,18.5,25.0,02.0,01.3,0672.8,31.0
2021-08-02T05:50:00Z,00000200,01000000,0000.41,0000.53,0000.18,-000.50,-000.34,0000.17,0000.20,0000.61,0000.88,18.5,25.0,01.9,01.3,0672.8,31.0
2021-08-02T05:51:00Z,00000200,01000000,0002.43,0001.76,0001.03,0000.41,0000.24,0000.13,0000.59,0000.49,0000.28,18.6,25.0,02.0,01.3,0672.7,31.0
2021-08-02T05:52:00Z,00000200,00000000,0001.01,0000.90,0000.45,0000.59,-000.01,-000.01,0000.63,0000.65,0000.15,18.5,25.0,02.1,01.4,0672.7,31.0
2021-08-02T05:53:00Z,00000200,00000000,0000.05,0000.72,0000.22,0000.02,-000.22,-000.01,0000.01,-000.01,-000.07,18.5,25.0,02.1,01.4,0672.7,31.0
2021-08-02T05:54:00Z,00000200,00000000,0000.14,0000.43,0000.04,0000.19,0000.12,0000.20,0000.09,-000.16,0000.10,18.5,25.0,02.1,01.4,0672.7,31.0
2021-08-02T05:55:00Z,00000200,00000000,0001.29,0000.78,0000.68,0000.66,0000.09,0000.15,0000.40,0000.34,0000.46,18.4,25.0,02.1,01.4,0672.7,31.0
2021-08-02T05:56:00Z,00000200,00000000,0002.86,0002.84,0001.13,0000.60,0000.17,-000.04,0000.76,0000.93,0000.79,18.4,24.9,02.3,01.5,0672.6,31.0
2021-08-02T05:57:00Z,00000200,40000000,,,,,,,0000.38,0000.70,0000.00,18.4,25.0,02.5,01.7,0672.6,31.0
2021-08-02T05:58:00Z,00000200,60000000,,,,,,,-000.30,-000.75,-000.14,18.1,25.0,02.4,01.6,0671.6,31.0
2021-08-02T05:59:00Z,00000200,20000000,,,,,,,0000.14,0000.34,0000.03,18.1,25.2,02.3,01.5,0671.6,31.0
